Wind_Speed
40 40 41 42 42 42 43 44 46 47 48 49 50 51 51 52 53 54 55 56 57 57 57 58 59 59 59 60 61 62 62 63 63 62 62 63 64 63 63 63 63 63 64
40 41 42 42 43 43 44 44 46 47 48 49 50 51 52 53 53 54 55 56 57 57 57 57 58 58 59 59 60 61 62 62 63 62 62 63 63 64 63 63 63 63 63
41 41 42 43 44 44 45 46 47 47 49 50 51 52 53 54 54 55 55 56 56 56 57 57 58 58 58 59 59 60 60 61 62 62 62 61 62 62 63 63 64 64 64
41 42 43 44 45 45 46 47 47 48 49 50 51 52 53 54 55 55 55 56 56 56 56 57 57 58 58 58 58 59 59 60 60 60 60 59 59 60 61 62 62 63 63
42 42 43 44 46 46 47 47 48 49 49 49 50 51 52 53 54 55 55 56 56 56 56 55 56 56 57 58 58 58 58 59 59 59 58 57 57 58 58 59 60 60 60
42 43 44 44 45 47 47 48 48 49 49 50 50 50 51 52 53 53 54 55 54 54 54 54 54 54 56 57 57 57 57 57 57 57 57 56 56 56 57 58 58 59 58
43 44 44 45 45 46 47 47 48 48 49 49 49 50 51 52 52 53 53 53 52 52 52 52 53 53 53 54 54 55 55 56 56 56 56 55 55 56 57 57 57 57 57
43 44 44 45 45 45 46 46 47 48 49 49 50 50 51 51 51 51 51 51 51 51 51 51 52 52 53 53 52 52 53 54 55 55 55 55 55 55 56 56 56 56 56
43 44 44 44 44 44 45 46 47 48 49 49 49 50 50 50 51 51 51 51 51 50 50 50 50 50 51 52 52 52 52 53 53 53 53 54 53 54 54 55 55 55 54
43 44 44 44 44 44 45 45 46 47 48 48 48 49 49 49 50 51 51 51 50 49 49 49 49 49 49 49 50 51 51 51 52 52 52 52 51 51 52 53 53 53 52
43 43 44 44 44 45 45 45 46 46 47 47 47 48 48 48 49 50 51 51 50 49 48 48 48 47 47 47 48 49 49 49 50 50 50 50 50 51 51 51 51 51 49
43 44 44 44 44 44 45 45 46 46 46 46 46 46 47 48 48 49 49 49 49 48 47 47 46 46 45 45 45 47 47 47 47 48 49 49 49 49 49 48 48 48 47
42 43 44 44 44 44 44 45 46 46 47 46 46 46 46 47 47 47 47 47 47 47 46 46 45 45 45 45 45 45 46 47 47 47 47 47 47 46 46 45 45 45 45
43 43 43 43 43 44 45 46 46 46 47 47 47 46 46 46 46 45 45 45 45 45 45 45 45 45 45 45 45 45 46 46 46 46 45 45 44 43 43 43 43 43 43
42 42 42 42 43 44 45 45 45 46 46 47 47 47 46 45 45 45 44 44 44 44 44 43 43 43 44 44 44 44 44 43 44 43 42 42 42 42 42 41 42 42 41
41 42 42 42 43 44 44 45 45 45 46 46 46 46 45 44 43 43 44 43 43 43 43 42 42 42 42 42 43 43 42 42 41 40 40 40 39 40 40 40 40 40 40
41 41 42 42 43 43 44 44 44 45 45 45 45 45 44 43 43 43 43 43 42 42 42 42 41 41 41 41 41 41 40 40 39 39 39 39 38 38 38 39 39 38 38
40 41 42 42 42 42 43 43 43 43 43 43 43 43 43 42 42 42 42 42 41 41 40 40 40 39 39 38 38 38 38 38 37 37 37 37 37 37 37 37 37 37 36
39 40 40 40 41 41 41 42 42 42 41 40 40 40 40 40 40 40 40 40 39 38 38 38 37 37 36 36 36 35 36 36 36 35 35 35 34 34 34 35 35 35 35
38 38 38 39 39 40 40 40 40 40 39 39 38 37 37 37 37 37 37 37 36 36 35 36 36 35 34 34 33 33 33 33 34 34 33 33 32 32 33 33 33 33 33
37 37 38 38 38 39 39 38 38 37 36 36 35 35 34 34 33 34 34 34 33 33 33 32 32 33 33 32 31 31 31 31 31 32 32 32 32 32 32 32 31 32 32
37 37 38 38 38 38 37 36 36 35 34 34 33 32 32 32 31 31 31 30 30 30 30 30 30 30 30 30 29 29 29 29 29 29 30 30 30 30 30 30 30 30 31
37 37 37 37 37 36 36 35 34 33 33 32 31 30 30 30 30 29 29 28 28 28 28 28 27 27 28 28 27 27 26 26 26 27 27 27 27 27 28 28 28 29 29
36 36 36 36 36 35 34 34 33 32 31 30 30 29 29 29 29 28 27 27 26 26 26 26 25 25 25 25 25 25 25 24 24 24 24 24 24 25 25 26 27 28 28
36 35 35 35 34 34 33 32 31 30 30 29 29 28 28 27 27 26 26 25 24 24 24 23 23 23 22 22 23 23 23 23 22 23 23 23 23 23 24 25 26 27 27
34 34 34 34 33 32 31 30 30 29 29 28 27 26 26 26 25 25 24 23 23 22 22 21 21 21 21 21 21 21 21 21 21 22 22 22 22 23 23 23 23 24 25
Wind_Direction
277 277 276 277 277 277 278 277 276 276 275 275 274 273 273 273 274 274 273 273 272 271 270 269 269 268 268 267 267 267 266 265 265 264 263 263 262 262 262 262 261 262 262
278 278 278 278 278 278 278 278 278 278 278 277 276 274 274 274 275 275 274 274 272 271 271 270 270 270 270 269 268 267 267 266 265 264 264 263 263 263 263 262 262 262 262
279 279 280 280 280 280 280 280 280 280 280 279 278 276 275 275 275 276 275 274 273 273 272 272 271 271 270 270 269 268 268 267 266 265 264 264 263 263 263 262 262 262 262
280 281 281 282 281 282 281 281 281 281 281 280 279 278 277 276 276 276 277 276 275 274 273 273 272 272 271 270 270 269 268 267 266 266 265 264 263 263 263 263 263 262 262
281 281 282 283 282 282 282 282 281 281 282 281 281 280 279 278 278 278 278 277 276 275 274 273 273 273 272 271 270 269 267 267 266 265 264 263 263 263 264 264 264 263 262
282 282 283 284 283 283 283 283 282 282 282 282 282 282 281 279 279 279 278 278 276 275 274 273 273 273 273 271 271 270 269 267 266 265 263 263 263 263 264 264 264 263 262
283 284 284 285 285 285 284 284 284 283 282 283 283 283 282 281 280 280 279 278 277 276 275 273 273 273 273 273 271 270 269 268 266 265 265 264 264 264 264 264 264 264 263
284 285 285 285 286 286 285 285 285 284 284 284 284 284 284 283 281 281 280 279 278 277 275 274 273 273 272 272 271 270 269 268 266 266 266 265 264 265 264 264 264 264 263
286 286 286 286 286 286 286 286 285 285 285 285 285 285 285 283 282 281 280 280 279 278 276 275 274 273 272 272 271 271 269 268 267 267 266 265 264 264 264 264 264 263 262
286 286 286 286 286 286 287 287 287 286 286 286 287 286 285 284 283 282 281 281 280 279 278 277 276 274 273 273 273 272 270 269 268 267 267 265 264 263 263 263 263 263 262
286 286 286 287 287 286 287 287 288 288 287 287 287 287 286 285 284 283 282 281 280 279 278 277 277 275 275 274 274 272 271 270 269 267 267 265 264 264 263 261 261 262 261
287 287 287 287 287 287 287 288 289 288 288 288 288 287 286 286 285 284 283 282 280 279 278 277 276 276 275 274 274 273 272 271 270 268 268 267 265 264 262 261 260 260 260
288 288 288 288 288 288 288 288 289 289 288 288 288 287 287 286 286 285 283 282 280 279 278 277 276 276 275 274 275 274 273 272 270 269 268 267 264 263 261 260 259 258 258
289 289 289 289 288 289 289 289 290 290 289 289 288 288 287 287 285 284 283 282 280 278 278 277 275 274 274 274 274 274 274 273 271 270 268 266 264 262 261 259 259 259 257
290 290 290 290 290 291 291 291 291 291 291 290 290 289 289 287 286 284 283 282 281 280 278 277 275 274 274 274 274 274 274 273 272 270 267 265 263 261 260 259 259 258 256
291 291 291 291 292 292 293 293 293 293 292 291 291 291 290 289 287 285 284 283 281 280 279 278 276 274 273 274 274 273 273 272 271 270 267 265 262 260 259 258 258 257 256
293 293 293 293 293 294 294 294 294 294 294 293 292 291 290 289 288 287 285 283 282 280 279 278 277 276 274 274 273 272 271 269 268 267 266 264 262 261 258 257 257 256 256
294 294 294 294 294 295 296 296 296 295 294 294 293 292 291 290 289 287 286 284 283 281 279 278 277 276 275 274 273 271 269 268 267 265 264 263 262 260 259 257 256 256 255
296 295 295 295 295 296 297 297 297 298 297 295 294 293 292 292 291 289 288 285 283 281 279 278 277 277 276 274 272 270 268 266 264 263 262 262 261 259 258 257 256 256 255
297 296 297 297 297 298 299 299 299 299 299 298 296 295 294 293 292 291 290 287 284 282 280 279 278 277 275 274 273 271 269 266 263 262 260 260 259 258 257 256 255 255 256
297 297 298 299 300 301 302 301 301 300 301 301 299 298 296 296 295 294 292 290 286 284 282 280 279 277 275 274 273 271 268 266 263 262 259 258 256 256 255 255 254 255 255
297 297 298 299 300 301 302 302 302 301 301 301 301 300 299 299 298 297 295 292 289 286 283 282 280 278 276 273 272 271 268 266 264 261 260 258 256 254 254 253 251 252 253
298 298 298 299 300 301 301 302 303 303 302 302 302 302 301 301 300 299 297 295 291 287 285 283 281 278 276 274 272 270 268 266 264 260 259 258 257 255 253 250 249 253 254
298 299 299 299 299 300 301 302 302 302 303 303 302 302 303 303 301 300 298 297 294 291 288 285 282 278 276 275 272 270 267 266 263 261 259 256 254 254 254 253 255 256 255
298 299 299 299 299 300 300 301 302 302 302 302 302 302 303 304 303 302 301 299 297 294 291 287 283 279 277 274 272 269 267 265 262 259 256 254 255 255 255 256 257 257 256
298 298 299 299 299 299 300 300 301 302 302 303 302 302 303 303 304 303 302 300 298 295 291 288 285 281 277 275 271 269 268 264 260 258 256 255 255 255 256 256 257 257 255
Height
5614 5612 5610 5608 5607 5604 5602 5600 5598 5596 5593 5592 5590 5588 5586 5584 5582 5580 5579 5577 5575 5573 5572 5570 5569 5568 5567 5567 5567 5567 5567 5567 5569 5573 5573 5574 5574 5575 5577 5578 5579 5581 5583
5603 5601 5599 5597 5594 5592 5590 5587 5585 5583 5580 5577 5575 5573 5571 5569 5567 5565 5563 5561 5558 5557 5554 5553 5551 5550 5550 5549 5548 5548 5548 5548 5550 5553 5554 5554 5555 5556 5557 5558 5560 5562 5563
5591 5589 5587 5585 5582 5580 5577 5575 5572 5569 5566 5563 5560 5558 5555 5553 5551 5548 5546 5544 5542 5539 5537 5536 5534 5533 5532 5531 5530 5530 5530 5530 5531 5533 5535 5535 5536 5536 5537 5539 5540 5542 5543
5580 5577 5575 5572 5570 5567 5564 5561 5558 5555 5552 5549 5546 5542 5540 5537 5535 5532 5529 5527 5525 5523 5520 5518 5517 5515 5514 5513 5513 5512 5512 5512 5512 5513 5516 5517 5518 5518 5518 5520 5522 5523 5525
5568 5565 5562 5560 5557 5554 5551 5548 5544 5541 5538 5534 5531 5528 5524 5521 5519 5516 5513 5511 5508 5506 5504 5501 5500 5498 5496 5496 5495 5494 5494 5494 5495 5496 5498 5499 5500 5500 5501 5502 5503 5505 5507
5556 5553 5550 5547 5544 5540 5537 5534 5530 5527 5523 5520 5517 5513 5509 5506 5503 5500 5497 5494 5492 5489 5487 5485 5483 5481 5480 5479 5478 5477 5476 5477 5478 5478 5480 5482 5483 5483 5483 5484 5485 5487 5490
5543 5540 5537 5534 5530 5527 5523 5520 5516 5513 5509 5506 5502 5498 5495 5491 5487 5484 5480 5478 5476 5473 5471 5469 5467 5465 5464 5463 5462 5461 5460 5460 5460 5462 5463 5464 5466 5467 5467 5468 5468 5468 5471
5530 5527 5524 5520 5517 5513 5510 5506 5503 5499 5495 5491 5488 5484 5480 5476 5472 5468 5465 5462 5460 5458 5455 5453 5452 5450 5449 5447 5446 5446 5445 5445 5445 5445 5447 5448 5448 5448 5449 5450 5450 5452 5454
5517 5514 5511 5507 5504 5500 5496 5492 5489 5485 5481 5477 5473 5469 5465 5461 5457 5454 5450 5448 5445 5443 5440 5438 5436 5435 5434 5432 5431 5431 5430 5430 5429 5429 5430 5430 5431 5431 5431 5432 5433 5434 5437
5504 5501 5497 5494 5490 5487 5483 5479 5475 5471 5467 5463 5459 5455 5451 5447 5443 5439 5435 5433 5431 5429 5426 5424 5422 5420 5418 5415 5414 5414 5414 5414 5414 5414 5414 5414 5414 5415 5415 5416 5417 5418 5420
5491 5488 5484 5481 5477 5473 5469 5465 5461 5457 5453 5449 5445 5441 5436 5432 5428 5424 5421 5418 5416 5414 5411 5409 5407 5405 5403 5401 5399 5399 5399 5398 5398 5398 5399 5399 5399 5400 5400 5400 5401 5402 5404
5478 5475 5471 5467 5463 5459 5456 5451 5447 5443 5439 5435 5431 5427 5422 5418 5414 5410 5406 5403 5400 5399 5397 5395 5393 5391 5390 5388 5386 5385 5383 5383 5382 5383 5383 5384 5384 5385 5385 5386 5387 5388 5389
5466 5462 5458 5454 5450 5446 5442 5438 5433 5429 5425 5421 5417 5413 5408 5404 5400 5396 5392 5389 5386 5384 5382 5381 5379 5377 5376 5374 5372 5370 5369 5368 5367 5368 5368 5368 5369 5369 5370 5371 5372 5374 5375
5453 5449 5445 5441 5437 5433 5428 5424 5420 5415 5411 5406 5402 5398 5394 5390 5386 5382 5379 5375 5373 5370 5368 5367 5365 5363 5362 5360 5359 5357 5355 5354 5353 5353 5353 5354 5354 5355 5356 5357 5359 5360 5362
5440 5436 5432 5428 5424 5420 5415 5410 5406 5401 5396 5392 5388 5384 5380 5376 5372 5368 5364 5362 5359 5357 5354 5353 5351 5350 5348 5347 5345 5343 5342 5340 5339 5339 5339 5340 5341 5342 5343 5343 5345 5346 5348
5428 5424 5420 5416 5411 5407 5402 5397 5392 5387 5382 5377 5373 5369 5365 5362 5358 5354 5351 5348 5345 5342 5340 5339 5337 5336 5334 5333 5332 5330 5328 5327 5326 5326 5326 5327 5328 5329 5330 5330 5331 5333 5335
5415 5411 5407 5403 5398 5394 5389 5385 5380 5375 5369 5364 5360 5355 5351 5348 5344 5341 5337 5334 5331 5329 5327 5325 5323 5322 5321 5319 5318 5317 5316 5314 5314 5314 5314 5315 5315 5316 5317 5318 5319 5321 5323
5403 5399 5395 5390 5386 5381 5377 5372 5367 5362 5358 5352 5347 5343 5339 5335 5331 5328 5324 5321 5318 5315 5313 5312 5311 5309 5307 5306 5305 5304 5303 5302 5302 5302 5302 5303 5303 5304 5305 5306 5307 5309 5311
5391 5387 5383 5378 5374 5369 5364 5360 5355 5350 5345 5340 5335 5331 5326 5322 5318 5314 5311 5308 5306 5303 5301 5299 5298 5297 5295 5294 5293 5292 5291 5291 5291 5291 5291 5292 5292 5293 5294 5295 5296 5298 5300
5380 5376 5371 5367 5362 5358 5353 5348 5343 5338 5333 5328 5324 5319 5315 5311 5307 5303 5299 5296 5294 5292 5290 5288 5286 5285 5284 5283 5282 5281 5280 5280 5280 5280 5281 5281 5282 5282 5283 5284 5286 5288 5289
5369 5365 5361 5356 5351 5347 5342 5337 5332 5327 5322 5317 5313 5308 5304 5300 5296 5292 5289 5285 5283 5281 5279 5277 5276 5274 5273 5272 5271 5271 5270 5270 5269 5270 5270 5271 5271 5272 5274 5275 5276 5278 5279
5358 5354 5350 5345 5341 5336 5331 5326 5321 5317 5312 5308 5303 5298 5294 5290 5286 5282 5279 5276 5273 5271 5269 5267 5266 5264 5263 5262 5262 5261 5261 5260 5260 5260 5260 5261 5262 5263 5264 5265 5267 5268 5269
5347 5343 5339 5334 5330 5325 5321 5316 5312 5307 5303 5298 5294 5290 5286 5281 5277 5274 5270 5267 5264 5262 5260 5258 5257 5255 5254 5253 5253 5252 5252 5252 5251 5252 5252 5253 5253 5254 5255 5257 5258 5259 5261
5336 5332 5328 5324 5319 5315 5311 5306 5302 5298 5294 5290 5286 5282 5278 5273 5269 5266 5262 5259 5256 5254 5251 5250 5248 5247 5246 5245 5244 5244 5244 5243 5243 5244 5244 5245 5246 5246 5247 5248 5250 5251 5252
5325 5321 5317 5313 5309 5305 5301 5297 5293 5289 5285 5281 5277 5273 5270 5266 5262 5258 5255 5252 5249 5246 5244 5242 5241 5240 5239 5238 5237 5237 5236 5236 5236 5236 5237 5238 5239 5239 5240 5241 5242 5243 5243
5314 5311 5307 5303 5299 5295 5291 5288 5284 5280 5277 5273 5269 5265 5262 5259 5255 5252 5248 5245 5243 5240 5238 5236 5234 5233 5232 5231 5231 5230 5230 5229 5229 5229 5230 5231 5232 5232 5233 5233 5234 5235 5236